time_stamp(utc),avg(mph),gust(mph),direction(deg),12m_air_temp(f),sonic_u(cm/s),sonic_v(cm/s),sonic_w(cm/s),pressure,2m_air_temp(f),pyranometer(W/m^2)
"2019-01-21 00:02:07+00",30.3,33.3,,24.9,-752,1124,76,1001.87,25.4,0
"2019-01-21 00:07:07+00",38.5,41.5,,24.6,-786,1508,56,1001.96,25,0
"2019-01-21 00:12:07+00",30.5,37.5,,24.4,-733,1147,86,1001.97,24.7,0
"2019-01-21 00:17:07+00",29.5,35.5,,24.2,-725,1092,74,1002.15,24.5,0
"2019-01-21 00:22:07+00",27.9,32.9,,24.1,-624,1067,83,1002.28,24.4,0
"2019-01-21 00:27:07+00",28.4,33.4,,24,-751,1009,90,1002.34,24.2,0
"2019-01-21 00:32:07+00",32.2,35.2,,23.8,-776,1201,69,1002.46,24,0
"2019-01-21 00:37:07+00",28.2,32.2,,23.8,-637,1065,75,1002.54,24.1,0
"2019-01-21 00:42:07+00",30.4,37.4,,23.6,-678,1165,80,1002.8,23.9,0
"2019-01-21 00:47:07+00",32.6,38.6,,23.3,-756,1238,75,1002.86,23.7,0
"2019-01-21 00:52:07+00",27.5,32.5,,23.8,-715,995,102,1002.9,23.9,0
"2019-01-21 00:57:07+00",32.6,37.6,,23,-781,1222,87,1002.98,23.5,0
"2019-01-21 01:02:07+00",34.1,41.1,,23,-865,1255,115,1003,23.3,0
"2019-01-21 01:07:07+00",39.3,46.3,,22.9,-1019,1417,96,1003.02,23.2,0
"2019-01-21 01:12:07+00",32.6,35.6,,22.5,-751,1229,82,1003.15,22.9,0
"2019-01-21 01:17:07+00",25.1,31.1,,22.7,-636,913,83,1003.41,23,0
"2019-01-21 01:22:07+00",29.8,35.8,,22.3,-722,1096,48,1003.59,22.7,0
"2019-01-21 01:27:07+00",33.5,37.5,,22.3,-927,1165,81,1003.57,22.8,0
"2019-01-21 01:32:07+00",27.3,29.3,,21.8,-724,962,86,1003.7,22.3,0
"2019-01-21 01:37:07+00",30.0,37.0,,21.9,-819,1059,84,1003.69,22.2,0
"2019-01-21 01:42:07+00",28.3,32.3,,21.6,-634,1088,74,1003.97,22,0
"2019-01-21 01:47:07+00",25.1,30.1,,21.6,-616,931,73,1004.02,21.9,0
"2019-01-21 01:52:07+00",32.9,36.9,,21.1,-744,1250,58,1004.32,21.4,0
"2019-01-21 01:57:07+00",28.9,37.9,,21,-729,1030,62,1004.47,21.4,0
"2019-01-21 02:02:07+00",24.7,26.7,,20.9,-587,928,50,1004.46,21.1,0
"2019-01-21 02:07:07+00",30.5,33.5,,20.5,-653,1189,50,1004.49,20.9,0
"2019-01-21 02:12:07+00",25.1,29.1,,20.7,-638,915,88,1004.6,20.9,0
"2019-01-21 02:17:07+00",25.9,28.9,,20.7,-501,1029,61,1004.57,20.9,0
"2019-01-21 02:22:07+00",23.9,27.9,,20.7,-564,902,56,1004.69,20.9,0
"2019-01-21 02:27:07+00",23.2,28.2,,20.7,-593,853,60,1004.73,20.9,0
"2019-01-21 02:32:07+00",29.6,33.6,,20.8,-719,1102,75,1004.82,21.1,0
"2019-01-21 02:37:07+00",20.2,24.2,,20.6,-429,781,55,1005.08,20.7,0
"2019-01-21 02:42:07+00",21.0,25.0,,20.8,-483,792,53,1005.18,20.7,0
"2019-01-21 02:47:07+00",26.5,29.5,,20.6,-650,987,51,1005.09,20.7,0
"2019-01-21 02:52:07+00",21.9,24.9,,20.6,-413,870,54,1005.27,20.7,0
"2019-01-21 02:57:07+00",22.1,29.1,,20.4,-549,815,61,1005.55,20.5,0
"2019-01-21 03:02:07+00",28.7,31.7,,20.4,-697,1066,50,1005.52,20.7,0
"2019-01-21 03:07:07+00",23.1,27.1,,20.4,-509,899,58,1005.59,20.5,0
"2019-01-21 03:12:07+00",25.7,29.7,,20.2,-707,889,55,1005.77,20.4,0
"2019-01-21 03:17:07+00",20.0,24.0,,20.3,-405,790,52,1005.71,20.4,0
"2019-01-21 03:22:07+00",24.0,29.0,,20.2,-584,906,63,1005.77,20.3,0
"2019-01-21 03:27:07+00",22.1,24.1,,20,-552,809,53,1006.14,20.1,0
"2019-01-21 03:32:07+00",22.6,26.6,,20.1,-675,747,74,1006.26,20.2,0
"2019-01-21 03:37:07+00",22.7,25.7,,20.1,-568,832,58,1006.46,20.2,0
"2019-01-21 03:42:07+00",19.4,21.4,,20.2,-489,723,40,1006.46,20.3,0
"2019-01-21 03:47:07+00",20.7,29.7,,20.5,-675,624,85,1006.5,20.4,0
"2019-01-21 03:52:07+00",37.2,41.2,,20.6,-1394,950,93,1006.32,20.9,0
"2019-01-21 03:57:07+00",35.7,38.7,,20.5,-1243,1003,89,1006.42,21,0
"2019-01-21 04:02:07+00",32.8,38.8,,20.5,-1189,883,91,1006.51,20.9,0
"2019-01-21 04:07:07+00",33.5,40.5,,20.3,-1176,948,105,1006.53,20.8,0
"2019-01-21 04:12:07+00",34.8,39.8,,19.9,-1309,903,79,1006.57,20.3,0
"2019-01-21 04:17:07+00",36.4,45.4,,19.8,-1344,929,96,1006.78,20.3,0
"2019-01-21 04:22:07+00",35.5,40.5,,19.6,-1239,1008,116,1006.93,20.1,0
"2019-01-21 04:27:07+00",33.8,38.8,,19.4,-1094,1052,100,1007.22,19.9,0
"2019-01-21 04:32:07+00",35.7,42.7,,19.2,-1119,1143,125,1007.31,19.6,0
"2019-01-21 04:37:07+00",37.6,43.6,,19,-1102,1254,94,1007.33,19.4,0
"2019-01-21 04:42:07+00",36.2,42.2,,18.9,-1037,1224,71,1007.43,19.3,0
"2019-01-21 04:47:07+00",32.9,42.9,,18.7,-996,1073,114,1007.62,19.1,0
"2019-01-21 04:52:07+00",29.8,34.8,,18.9,-914,999,123,1007.85,19.1,0
"2019-01-21 04:57:07+00",35.6,38.6,,18.2,-1076,1172,91,1007.87,18.8,0
"2019-01-21 05:02:07+00",31.9,37.9,,18.4,-818,1162,121,1008.09,18.7,0
"2019-01-21 05:07:07+00",29.6,35.6,,18.2,-857,1007,108,1008.06,18.5,0
"2019-01-21 05:12:07+00",30.0,36.0,,17.8,-740,1105,81,1008.14,18.1,0
"2019-01-21 05:17:07+00",27.0,31.0,,18,-892,845,86,1008.24,18.2,0
"2019-01-21 05:22:07+00",24.9,27.9,,18.2,-789,770,102,1008.34,18.3,0
"2019-01-21 05:27:07+00",28.7,32.7,,17.9,-915,910,65,1008.32,18.1,0
"2019-01-21 05:32:07+00",26.1,29.1,,17.5,-749,873,55,1008.37,17.9,0
"2019-01-21 05:37:07+00",21.3,26.3,,17.8,-616,729,88,1008.62,17.9,0
"2019-01-21 05:42:07+00",22.4,27.4,,17.6,-609,776,62,1008.64,17.8,0
"2019-01-21 05:47:07+00",22.4,25.4,,17.7,-685,764,75,1008.61,17.8,0
"2019-01-21 05:52:07+00",28.7,37.7,,17.7,-1060,741,75,1008.61,17.8,0
"2019-01-21 05:57:07+00",29.6,31.6,,17.7,-1063,800,87,1008.64,17.9,0
"2019-01-21 06:02:07+00",33.1,36.1,,17.4,-1193,879,76,1008.81,17.7,0
"2019-01-21 06:07:07+00",29.9,32.9,,17.5,-1047,829,87,1008.85,17.7,0
"2019-01-21 06:12:07+00",30.9,34.9,,17.2,-1118,806,100,1008.83,17.5,0
"2019-01-21 06:17:07+00",32.5,37.5,,17.4,-1110,927,97,1008.92,17.5,0
"2019-01-21 06:22:07+00",32.9,37.9,,16.9,-1155,930,98,1009.02,17.2,0
"2019-01-21 06:27:07+00",37.3,41.3,,17,-1276,1081,95,1009,17.3,0
"2019-01-21 06:32:07+00",33.1,36.1,,17.1,-1073,1015,87,1009.21,17.4,0
"2019-01-21 06:37:07+00",31.1,36.1,,17,-946,1012,75,1009.36,17.2,0
"2019-01-21 06:42:07+00",30.1,33.1,,16.9,-1000,905,82,1009.48,17.1,0
"2019-01-21 06:47:07+00",33.9,38.9,,16.6,-1187,953,70,1009.49,16.9,0
"2019-01-21 06:52:07+00",32.6,36.6,,16.6,-1086,984,72,1009.67,16.8,0
"2019-01-21 06:57:07+00",29.2,33.2,,16.4,-1028,809,65,1009.78,16.7,0
"2019-01-21 07:02:07+00",28.8,33.8,,16.4,-899,919,72,1009.94,16.7,0
"2019-01-21 07:07:07+00",31.9,35.9,,16.5,-1161,856,105,1009.87,16.8,0
"2019-01-21 07:12:07+00",30.7,34.7,,16.4,-1102,810,107,1009.85,16.6,0
"2019-01-21 07:17:07+00",33.7,37.7,,16.1,-923,1182,107,1010.02,16.3,0
"2019-01-21 07:22:07+00",31.6,35.6,,15.9,-1050,940,71,1010.03,16.1,0
"2019-01-21 07:27:07+00",24.3,28.3,,16.2,-858,671,144,1010.22,16.3,0
"2019-01-21 07:32:07+00",33.1,39.1,,15.6,-1133,959,103,1010.18,15.9,0
"2019-01-21 07:37:07+00",30.4,33.4,,15.5,-1114,804,90,1010.3,15.8,0
"2019-01-21 07:42:07+00",29.6,33.6,,15.7,-1038,848,108,1010.28,15.7,0
"2019-01-21 07:47:07+00",28.3,31.3,,15.7,-866,920,92,1010.48,15.9,0
"2019-01-21 07:52:07+00",26.9,32.9,,15.2,-855,859,73,1010.58,15.5,0
"2019-01-21 07:57:07+00",22.8,27.8,,15.3,-651,779,79,1010.69,15.4,0
"2019-01-21 08:02:07+00",25.2,28.2,,14.9,-726,853,80,1010.71,15.2,0
"2019-01-21 08:07:07+00",25.8,29.8,,15.1,-858,766,85,1010.65,15.3,0
"2019-01-21 08:12:07+00",32.4,35.4,,15.2,-1290,678,101,1010.5,15.3,0
"2019-01-21 08:17:07+00",34.6,38.6,,14.8,-1308,861,86,1010.58,15.1,0
"2019-01-21 08:22:07+00",30.3,33.3,,14.9,-1059,841,85,1010.76,15.1,0
"2019-01-21 08:27:07+00",32.6,35.6,,14.5,-1087,960,87,1010.83,14.9,0
"2019-01-21 08:32:07+00",27.0,31.0,,14.5,-858,839,93,1011.05,14.8,0
"2019-01-21 08:37:07+00",34.6,38.6,,14.4,-1233,950,101,1010.84,14.7,0
"2019-01-21 08:42:07+00",31.9,38.9,,14.2,-1064,938,86,1010.93,14.5,0
"2019-01-21 08:47:07+00",34.2,38.2,,13.8,-1241,884,84,1011.07,14.2,0
"2019-01-21 08:52:07+00",29.1,33.1,,13.9,-1093,699,112,1011.13,14.2,0
"2019-01-21 08:57:07+00",27.7,32.7,,13.9,-924,828,116,1011.24,14.1,0
"2019-01-21 09:02:07+00",33.1,37.1,,13.5,-1151,912,104,1011.19,14,0
"2019-01-21 09:07:07+00",29.9,32.9,,13.7,-904,982,101,1011.36,14,0
"2019-01-21 09:12:07+00",30.2,33.2,,13.4,-1033,877,92,1011.26,13.8,0
"2019-01-21 09:17:07+00",26.1,29.1,,13.5,-954,678,77,1011.39,13.8,0
"2019-01-21 09:22:07+00",27.6,30.6,,13.6,-968,766,102,1011.54,13.9,0
"2019-01-21 09:27:07+00",32.8,37.8,,13.2,-1265,767,98,1011.39,13.7,0
"2019-01-21 09:32:07+00",31.4,38.4,,13.5,-1120,876,81,1011.63,13.6,0
"2019-01-21 09:37:07+00",30.9,34.9,,13.2,-1096,862,77,1011.73,13.5,0
"2019-01-21 09:42:07+00",28.1,35.1,,13.2,-929,837,75,1011.88,13.5,0
"2019-01-21 09:47:07+00",28.0,33.0,,13,-879,884,99,1012.01,13.3,0
"2019-01-21 09:52:07+00",25.3,30.3,,13.1,-901,696,79,1012.07,13.2,0
"2019-01-21 09:57:07+00",27.5,30.5,,12.7,-849,892,73,1012.22,13.2,0
"2019-01-21 10:02:07+00",30.6,35.6,,13.1,-1110,782,75,1012.24,13.3,0
"2019-01-21 10:07:07+00",32.2,37.2,,12.7,-1211,788,100,1012.28,13.1,0
"2019-01-21 10:12:07+00",36.6,40.6,,12.7,-1218,1103,92,1012.39,13.1,0
"2019-01-21 10:17:07+00",28.6,35.6,,13.1,-877,927,92,1012.66,13.2,0
"2019-01-21 10:22:07+00",30.5,36.5,,12.3,-942,974,62,1012.56,12.9,0
"2019-01-21 10:27:07+00",30.9,37.9,,12.2,-947,994,101,1012.54,12.7,0
"2019-01-21 10:32:07+00",28.1,35.1,,12.5,-908,853,95,1012.63,12.8,0
"2019-01-21 10:37:07+00",30.9,36.9,,12,-1059,907,77,1012.64,12.6,0
"2019-01-21 10:42:07+00",29.8,34.8,,12.1,-1005,904,93,1012.68,12.5,0
"2019-01-21 10:47:07+00",28.3,31.3,,12.2,-1008,789,68,1012.7,12.6,0
"2019-01-21 10:52:07+00",31.5,41.5,,12.2,-1125,838,92,1012.63,12.5,0
"2019-01-21 10:57:07+00",29.5,35.5,,12.2,-1045,835,98,1012.78,12.5,0
"2019-01-21 11:02:07+00",31.4,38.4,,11.9,-975,988,129,1012.91,12.4,0
"2019-01-21 11:07:07+00",29.5,35.5,,12.1,-1028,840,98,1012.92,12.5,0
"2019-01-21 11:12:07+00",31.8,35.8,,11.5,-1046,963,69,1013,12.3,0
"2019-01-21 11:17:07+00",26.6,32.6,,11.7,-968,719,103,1013.19,12.1,0
"2019-01-21 11:22:07+00",26.3,28.3,,11.3,-957,691,76,1013.26,11.9,0
"2019-01-21 11:27:07+00",29.9,32.9,,11.5,-971,917,81,1013.37,11.9,0
"2019-01-21 11:32:07+00",27.1,31.1,,11.7,-981,715,75,1013.44,12.2,0
"2019-01-21 11:37:07+00",30.9,34.9,,11.5,-1146,781,74,1013.46,12.2,0
"2019-01-21 11:42:07+00",34.1,40.1,,11.6,-1082,1057,100,1013.64,12.3,0
"2019-01-21 11:47:07+00",32.3,37.3,,11.7,-1138,919,90,1013.76,12.3,0
"2019-01-21 11:52:07+00",28.8,32.8,,11.5,-970,847,89,1013.88,12.1,0
"2019-01-21 11:57:07+00",26.4,32.4,,11.3,-873,791,103,1013.85,12.1,0
"2019-01-21 12:02:07+00",28.5,33.5,,11.1,-1061,718,48,1013.93,11.8,0
"2019-01-21 12:07:07+00",36.2,42.2,,11.6,-1298,977,109,1013.94,12.1,0
"2019-01-21 12:12:07+00",34.7,37.7,,11.1,-1187,1006,82,1013.99,12,0
"2019-01-21 12:17:07+00",24.9,27.9,,11.6,-888,682,92,1014.1,12.2,0
"2019-01-21 12:22:07+00",30.3,34.3,,11.6,-1181,671,94,1014.24,12.3,0
"2019-01-21 12:27:07+00",28.4,32.4,,11.7,-979,790,76,1014.3,12.4,0
"2019-01-21 12:32:07+00",29.3,34.3,,11.3,-1099,717,68,1014.4,12.1,0
"2019-01-21 12:37:07+00",33.9,40.9,,11.4,-1252,865,95,1014.38,12.2,0
"2019-01-21 12:42:07+00",31.5,36.5,,11.3,-962,1017,107,1014.49,12.1,0
"2019-01-21 12:47:07+00",30.2,36.2,,11.6,-1122,769,110,1014.6,12.4,15.3
"2019-01-21 12:52:07+00",32.6,38.6,,11.3,-1206,817,123,1014.65,12.1,30.7
"2019-01-21 12:57:07+00",32.5,37.5,,11.7,-1293,678,151,1014.81,12.4,0
"2019-01-21 13:02:07+00",34.7,40.7,,11.2,-1362,736,110,1014.9,12.4,51.1
"2019-01-21 13:07:07+00",31.2,35.2,,11.4,-976,995,108,1015.01,12.4,60.5
"2019-01-21 13:12:07+00",34.3,41.3,,11.3,-1298,834,109,1015.09,12.5,70.6
"2019-01-21 13:17:07+00",36.9,40.9,,10.9,-1414,863,77,1015.01,12.3,80.9
"2019-01-21 13:22:07+00",34.9,39.9,,11.3,-1394,699,111,1015.14,12.5,90.1
"2019-01-21 13:27:07+00",35.5,43.5,,11.4,-1385,779,110,1015.24,12.7,100.8
"2019-01-21 13:32:07+00",32.1,39.1,,11.6,-1100,925,87,1015.5,12.7,110.4
"2019-01-21 13:37:07+00",35.0,41.0,,11.1,-1152,1060,100,1015.44,12.4,54.4
"2019-01-21 13:42:07+00",40.0,47.0,,10.8,-1487,991,81,1015.47,12.3,129.8
"2019-01-21 13:47:07+00",37.7,42.7,,11.2,-1396,946,76,1015.77,12.4,105.6
"2019-01-21 13:52:07+00",36.6,39.6,,11,-1422,847,103,1015.73,12.4,151
"2019-01-21 13:57:07+00",32.9,38.9,,11.5,-1166,918,89,1015.91,13,159.5
"2019-01-21 14:02:07+00",29.6,36.6,,12,-1060,788,138,1015.87,13.2,167.6
"2019-01-21 14:07:07+00",37.2,43.2,,11.7,-1243,1106,130,1015.74,12.9,178.8
"2019-01-21 14:12:07+00",37.3,42.3,,11.2,-1323,1020,105,1016.08,12.7,182.7
"2019-01-21 14:17:07+00",35.6,46.6,,11.3,-1119,1117,92,1016.03,12.6,191.9
"2019-01-21 14:22:07+00",36.0,41.0,,11.8,-1261,992,123,1016.12,13,203.9
"2019-01-21 14:27:07+00",36.4,42.4,,11.4,-1371,901,112,1016.27,12.9,208.9
"2019-01-21 14:32:07+00",33.8,39.8,,11.9,-1142,992,111,1016.47,13,189.6
"2019-01-21 14:37:07+00",37.4,42.4,,11.6,-1483,784,110,1016.31,13.3,215.7
"2019-01-21 14:42:07+00",37.1,44.1,,11.6,-1229,1113,102,1016.58,13.3,224.3
"2019-01-21 14:47:07+00",38.1,45.1,,11.6,-1420,943,121,1016.53,13.1,89.8
"2019-01-21 14:52:07+00",37.7,41.7,,11.8,-1290,1093,95,1016.84,13.3,242
"2019-01-21 14:57:07+00",37.5,43.5,,11.4,-1327,1019,89,1016.96,13,126.2
"2019-01-21 15:02:07+00",35.0,39.0,,12.1,-1365,778,90,1016.92,13.4,246.3
"2019-01-21 15:07:07+00",36.6,42.6,,12.2,-1411,870,125,1017.02,13.9,243.5
"2019-01-21 15:12:07+00",40.0,46.0,,11.9,-1430,1082,116,1017.11,13.7,260
"2019-01-21 15:17:07+00",33.6,41.6,,11.8,-1371,675,94,1017.12,13.6,181.9
"2019-01-21 15:22:07+00",38.0,47.0,,12.2,-1274,1170,137,1017.24,13.7,270.6
"2019-01-21 15:27:07+00",34.5,39.5,,12.6,-1234,935,158,1017.39,14.1,273
"2019-01-21 15:32:07+00",32.9,36.9,,12.4,-1152,926,72,1017.48,13.8,240
"2019-01-21 15:37:07+00",34.2,41.2,,12.8,-1097,1068,117,1017.39,14.2,284
"2019-01-21 15:42:07+00",40.6,46.6,,12.6,-1244,1338,118,1017.47,14.3,288.4
"2019-01-21 15:47:07+00",39.4,44.4,,12.6,-1204,1263,95,1017.56,14,289.2
"2019-01-21 15:52:07+00",34.1,38.1,,12.5,-1037,1098,116,1017.73,14.1,291.5
"2019-01-21 15:57:07+00",33.1,37.1,,13,-1303,712,111,1017.6,14.7,295.1
"2019-01-21 16:02:07+00",35.3,40.3,,12.9,-1316,857,98,1017.64,14.5,299.7
"2019-01-21 16:07:07+00",40.1,44.1,,12.6,-1385,1172,101,1017.62,14.4,303.1
"2019-01-21 16:12:07+00",34.5,46.5,,13.2,-1306,838,144,1017.52,14.7,304.9
"2019-01-21 16:17:07+00",34.1,38.1,,13.2,-1222,898,64,1017.55,14.8,302.1
"2019-01-21 16:22:07+00",40.6,44.6,,13.1,-1569,912,92,1017.59,14.9,306.7
"2019-01-21 16:27:07+00",38.3,42.3,,13,-1363,1054,124,1017.74,14.8,297.5
"2019-01-21 16:32:07+00",37.4,49.4,,13.6,-1397,929,111,1017.62,14.9,314.5
"2019-01-21 16:37:07+00",37.7,42.7,,14,-1481,819,111,1017.72,15.5,315.1
"2019-01-21 16:42:07+00",36.7,41.7,,13.6,-1207,1137,96,1017.95,15.3,315.4
"2019-01-21 16:47:07+00",33.6,37.6,,13.7,-1333,682,97,1017.85,15.2,317.8
"2019-01-21 16:52:07+00",38.4,44.4,,13.6,-1493,834,105,1017.69,15.5,321.1
"2019-01-21 16:57:07+00",35.0,42.0,,14.3,-1120,1086,140,1017.8,15.7,318.8
"2019-01-21 17:02:07+00",34.5,41.5,,14.6,-1263,912,146,1017.88,15.8,320.5
"2019-01-21 17:07:07+00",39.7,46.7,,13.7,-1224,1302,104,1017.86,15.3,319.8
"2019-01-21 17:12:07+00",38.9,42.9,,14.1,-1295,1192,102,1017.76,15.7,320.5
"2019-01-21 17:17:07+00",38.7,46.7,,14.4,-1341,1134,149,1017.82,15.7,320.1
"2019-01-21 17:22:07+00",34.9,41.9,,14.4,-1270,952,128,1017.85,15.9,320
"2019-01-21 17:27:07+00",34.2,44.2,,14.8,-1246,927,157,1017.94,16.2,319
"2019-01-21 17:32:07+00",38.7,43.7,,14.5,-1116,1313,115,1017.96,16.1,317.2
"2019-01-21 17:37:07+00",38.0,42.0,,14.3,-1341,1064,110,1017.82,16,315.3
"2019-01-21 17:42:07+00",37.4,41.4,,14.4,-1296,1077,79,1017.88,16,313.8
"2019-01-21 17:47:07+00",33.8,39.8,,14.9,-1246,872,99,1017.95,16.4,312.4
"2019-01-21 17:52:07+00",32.7,35.7,,14.8,-1145,906,103,1017.9,16.3,309.9
"2019-01-21 17:57:07+00",40.9,45.9,,15.3,-1323,1257,99,1017.87,16.6,308.1
"2019-01-21 18:02:07+00",41.2,45.2,,14.9,-1164,1410,101,1017.91,16.4,305.7
"2019-01-21 18:07:07+00",37.4,43.4,,15.3,-1237,1142,85,1017.84,16.7,304.4
"2019-01-21 18:12:07+00",33.0,37.0,,15.2,-827,1204,77,1017.9,16.6,300.5
"2019-01-21 18:17:07+00",36.2,44.2,,15.4,-1323,955,117,1017.98,16.9,298.1
"2019-01-21 18:22:07+00",35.5,41.5,,15.3,-1361,830,147,1017.95,16.8,293.5
"2019-01-21 18:27:07+00",28.5,32.5,,15.6,-1062,731,127,1018.23,16.7,290.4
"2019-01-21 18:32:07+00",34.7,43.7,,15.9,-1294,901,131,1018.34,17.2,287.5
"2019-01-21 18:37:07+00",39.9,43.9,,15,-1323,1217,115,1018.45,16.6,284.4
"2019-01-21 18:42:07+00",37.5,43.5,,15.1,-1333,1032,106,1018.52,16.6,280.7
"2019-01-21 18:47:07+00",38.0,42.0,,15.4,-1209,1193,100,1018.63,16.8,276.2
"2019-01-21 18:52:07+00",38.8,45.8,,15.8,-1295,1161,111,1018.55,16.9,274.1
"2019-01-21 18:57:07+00",39.9,44.9,,15.8,-1443,1052,111,1018.66,17,269.9
"2019-01-21 19:02:07+00",36.1,41.1,,15.7,-1160,1121,85,1018.76,17,264.1
"2019-01-21 19:07:07+00",31.3,38.3,,16.5,-998,999,107,1018.7,17.4,259.9
"2019-01-21 19:12:07+00",31.4,35.4,,15.8,-1048,959,101,1018.74,17.2,255.6
"2019-01-21 19:17:07+00",31.7,35.7,,16.6,-1141,852,100,1018.73,17.7,249.6
"2019-01-21 19:22:07+00",32.8,36.8,,16.3,-1068,1001,87,1018.89,17.7,245.5
"2019-01-21 19:27:07+00",39.6,42.6,,16.5,-1390,1122,92,1018.72,17.8,240.6
"2019-01-21 19:32:07+00",35.2,40.2,,16.7,-1292,896,101,1018.68,17.8,235.1
"2019-01-21 19:37:07+00",37.7,40.7,,17,-1300,1088,110,1018.64,18.1,229.2
"2019-01-21 19:42:07+00",38.7,41.7,,16.6,-1297,1140,91,1018.81,17.9,224.4
"2019-01-21 19:47:07+00",34.3,39.3,,16.9,-1249,889,87,1018.88,18,217.5
"2019-01-21 19:52:07+00",37.6,41.6,,17.1,-1342,1046,96,1018.92,18.2,209.6
"2019-01-21 19:57:07+00",36.3,40.3,,17,-1375,894,92,1018.89,18,201.5
"2019-01-21 20:02:07+00",36.9,40.9,,16.9,-1356,938,98,1019.1,18.1,192.9
"2019-01-21 20:07:07+00",38.5,43.5,,17,-1348,1070,105,1019.08,18,184.9
"2019-01-21 20:12:07+00",37.7,45.7,,17.3,-1540,718,116,1019.11,18.2,176.2
"2019-01-21 20:17:07+00",38.5,43.5,,17.1,-1358,1075,126,1019.36,18.1,167.9
"2019-01-21 20:22:07+00",39.0,45.0,,17,-1508,840,107,1019.4,17.9,161.2
"2019-01-21 20:27:07+00",34.0,38.0,,17.1,-1038,1104,106,1019.74,18.1,152.1
"2019-01-21 20:32:07+00",39.0,43.0,,16.9,-1297,1160,102,1019.75,17.9,143.8
"2019-01-21 20:37:07+00",27.0,30.0,,17.6,-984,739,79,1019.9,18.2,132.6
"2019-01-21 20:42:07+00",31.4,37.4,,17.3,-1213,690,118,1019.75,18.1,123.9
"2019-01-21 20:47:07+00",39.3,45.3,,17.5,-1345,1127,104,1019.82,18.3,114.9
"2019-01-21 20:52:07+00",33.3,40.3,,17.5,-1046,1069,107,1020,18.2,105.7
"2019-01-21 20:57:07+00",40.6,47.6,,17.7,-1411,1161,111,1019.78,18.3,97.1
"2019-01-21 21:02:07+00",34.6,42.6,,17.5,-1291,843,125,1019.96,18.1,88.2
"2019-01-21 21:07:07+00",36.0,41.0,,17.7,-1251,1030,96,1020.07,18.2,78.2
"2019-01-21 21:12:07+00",31.8,36.8,,18.1,-1097,929,84,1020.2,18.5,68.4
"2019-01-21 21:17:07+00",34.7,39.7,,17.8,-1255,908,102,1020.27,18.2,59.7
"2019-01-21 21:22:07+00",29.8,32.8,,17.9,-1056,795,93,1020.26,18.2,51.1
"2019-01-21 21:27:07+00",37.1,42.1,,17.5,-1346,993,91,1020.49,18,41
"2019-01-21 21:32:07+00",33.4,38.4,,17.7,-1290,766,121,1020.47,18,32.7
"2019-01-21 21:37:07+00",37.7,45.7,,17.5,-1416,932,88,1020.59,17.9,23.5
"2019-01-21 21:42:07+00",33.6,40.6,,17.7,-1195,907,100,1020.82,17.9,14.4
"2019-01-21 21:47:07+00",34.2,38.2,,17.8,-1153,997,113,1021.06,18,6.6
"2019-01-21 21:52:07+00",32.7,38.7,,17.8,-1204,844,87,1021.13,17.9,0
"2019-01-21 21:57:07+00",33.8,37.8,,17.7,-1246,858,80,1021.14,17.8,0
"2019-01-21 22:02:07+00",34.5,41.5,,17.8,-1330,806,106,1021.3,17.8,0
"2019-01-21 22:07:07+00",31.1,35.1,,17.8,-1069,857,62,1021.36,17.7,0
"2019-01-21 22:12:07+00",38.7,46.7,,17.7,-1421,1022,123,1021.24,17.6,0
"2019-01-21 22:17:07+00",32.8,37.8,,17.9,-1158,901,109,1021.52,17.7,0
"2019-01-21 22:22:07+00",32.5,36.5,,17.8,-1178,853,95,1021.62,17.6,0
"2019-01-21 22:27:07+00",31.9,37.9,,17.8,-1127,866,122,1021.68,17.6,0
"2019-01-21 22:32:07+00",34.4,39.4,,17.7,-1265,878,88,1021.73,17.6,0
"2019-01-21 22:37:07+00",39.3,42.3,,17.7,-1390,1091,96,1021.6,17.6,0
"2019-01-21 22:42:07+00",34.5,40.5,,17.7,-1277,886,90,1021.82,17.5,0
"2019-01-21 22:47:07+00",30.1,34.1,,17.7,-1072,835,64,1022.02,17.5,0
"2019-01-21 22:52:07+00",28.5,32.5,,17.7,-1135,614,73,1022.13,17.5,0
"2019-01-21 22:57:07+00",28.5,33.5,,17.7,-1105,643,105,1022.19,17.5,0
"2019-01-21 23:02:07+00",32.7,36.7,,17.7,-1174,874,70,1022.33,17.5,0
"2019-01-21 23:07:07+00",35.8,39.8,,17.6,-1408,760,107,1022.49,17.4,0
"2019-01-21 23:12:07+00",36.9,40.9,,17.5,-1366,949,92,1022.62,17.4,0
"2019-01-21 23:17:07+00",26.8,30.8,,17.6,-1034,606,107,1022.86,17.4,0
"2019-01-21 23:22:07+00",31.5,35.5,,17.6,-1131,841,50,1023.07,17.4,0
"2019-01-21 23:27:07+00",34.2,38.2,,17.6,-1262,865,102,1023.06,17.4,0
"2019-01-21 23:32:07+00",29.2,33.2,,17.7,-1084,742,72,1023.29,17.5,0
"2019-01-21 23:37:07+00",34.2,36.2,,17.7,-1298,826,108,1023.25,17.5,0
"2019-01-21 23:42:07+00",25.2,29.2,,17.8,-906,696,112,1023.58,17.5,0
"2019-01-21 23:47:07+00",27.2,31.2,,17.8,-934,780,84,1023.67,17.6,0
"2019-01-21 23:52:07+00",27.3,31.3,,17.9,-1011,704,101,1023.75,17.6,0
"2019-01-21 23:57:07+00",32.5,41.5,,17.7,-1196,830,93,1023.84,17.6,0
